Dewpoint
51 50 50 51 51 50 50 51 51 51 51 50 49 49 49 48 48 48 48 47 47 47 46 46 46 46 46 45 45 44 44 44 44 44 44 44 43 43 44 44 45 45 45 44 44 44 43 42 42 42 43 43 42 42 43 44 43 41 39 39 38 38 38 38 40 39 37 38 38
50 50 50 50 50 50 50 50 51 51 51 50 50 49 49 48 48 48 48 48 47 47 47 47 47 47 46 44 44 44 44 44 44 44 44 43 44 44 44 44 45 45 46 46 44 43 43 42 42 42 42 42 42 41 42 45 47 44 39 38 38 38 38 38 39 38 38 38 38
50 50 50 49 49 49 49 49 50 51 51 51 50 50 49 49 48 48 48 48 49 48 48 47 49 48 47 45 45 45 45 44 44 44 44 44 43 44 44 44 44 45 46 46 44 44 43 43 42 42 41 41 41 40 41 42 44 42 40 38 38 38 38 38 38 39 39 39 39
49 49 49 49 48 48 48 47 48 49 50 50 51 51 50 49 49 49 49 49 49 49 49 48 49 49 48 48 46 45 45 45 44 44 44 44 43 43 43 44 44 44 45 45 45 44 44 43 42 42 41 41 41 40 40 41 42 41 40 39 38 38 38 37 38 39 39 39 39
49 48 48 48 48 48 47 47 47 48 49 49 49 49 49 50 50 50 49 49 49 48 48 49 50 50 50 49 46 45 45 45 44 44 44 43 43 44 44 44 44 44 45 45 45 44 44 43 42 42 41 41 41 40 40 41 42 41 40 39 39 39 38 38 38 39 39 39 40
48 48 48 48 48 48 47 47 47 47 48 49 48 48 47 48 48 48 48 48 48 48 49 52 53 52 51 48 46 45 44 45 45 45 45 46 45 44 44 44 45 46 45 45 45 44 44 43 42 41 41 41 42 41 40 41 41 41 41 39 39 39 39 38 39 39 39 39 39
48 47 47 47 47 48 48 48 48 47 47 47 47 47 46 47 46 46 46 47 48 48 49 52 53 52 50 48 46 45 45 45 45 46 46 46 44 45 47 46 48 48 46 45 44 45 45 44 42 41 41 41 40 41 42 41 41 41 41 40 39 40 40 42 41 40 40 40 39
48 47 46 46 46 47 48 48 48 47 46 46 46 46 46 46 46 46 45 45 46 47 49 51 52 51 50 49 48 47 46 47 46 45 45 45 44 46 48 49 49 49 47 45 45 45 45 44 42 41 40 40 40 40 41 43 44 44 42 41 40 41 45 49 49 45 42 41 43
47 47 47 47 47 47 48 48 48 47 46 45 46 46 46 46 47 46 46 45 46 48 49 49 50 50 50 49 49 48 47 47 46 46 46 47 48 49 49 49 49 49 47 46 46 46 46 44 42 41 40 40 40 40 42 44 48 48 45 41 40 41 43 47 47 45 43 43 45
48 48 48 48 48 48 48 48 48 47 46 46 45 45 46 46 47 47 46 46 48 48 48 49 49 49 49 49 49 49 48 48 47 47 48 49 51 51 51 50 50 50 49 48 46 46 46 44 43 42 41 40 40 41 44 46 49 49 47 42 44 44 44 44 44 43 43 45 46
48 48 48 48 48 48 47 47 47 47 46 46 46 45 45 46 46 46 47 48 48 48 47 49 49 49 49 48 49 49 49 49 48 48 49 50 51 52 52 51 51 51 50 50 48 47 46 45 45 45 43 40 41 42 44 47 49 49 49 46 47 47 46 44 44 44 44 45 46
47 48 48 48 48 48 48 47 47 46 46 46 45 45 45 45 45 46 47 48 47 46 47 49 49 49 48 48 49 49 49 49 49 50 50 51 52 52 52 52 52 52 51 51 49 48 48 48 48 48 46 43 42 44 45 48 49 49 49 48 48 48 48 48 47 47 47 46 47
46 47 47 48 48 48 48 48 47 46 46 45 45 44 44 45 46 47 47 47 46 46 47 49 49 49 49 48 49 49 49 49 50 50 50 51 51 52 52 52 52 52 51 51 49 49 49 48 48 48 48 46 44 44 46 49 49 49 49 48 48 47 47 49 49 48 47 46 48
45 46 46 47 48 48 47 47 46 45 45 45 45 44 44 45 46 46 47 46 46 46 46 48 48 49 48 48 49 49 49 49 51 52 52 50 51 51 51 51 52 52 51 50 50 49 49 49 48 48 48 48 46 46 47 49 49 49 49 48 48 48 48 49 49 49 48 47 47
44 45 45 46 47 47 46 46 45 45 45 45 45 44 44 44 45 46 47 46 46 46 46 47 48 48 48 47 48 49 49 49 49 51 52 52 51 50 50 50 51 51 51 51 50 50 49 49 49 48 48 49 49 49 49 50 50 49 49 49 48 48 49 49 49 49 49 48 48
44 44 44 45 45 46 46 45 45 44 44 44 44 44 44 44 45 46 47 47 46 46 46 46 47 47 48 48 48 48 48 48 48 49 49 50 50 50 49 49 49 50 51 51 51 50 49 49 48 48 49 49 49 49 50 50 50 50 49 49 49 49 49 49 49 49 49 48 47
42 43 44 44 44 44 45 45 44 44 44 44 44 44 44 44 45 47 48 47 46 46 46 47 47 47 47 47 48 48 47 47 47 47 47 47 48 49 49 48 49 50 51 51 51 51 50 49 48 49 49 49 50 50 50 50 50 50 50 49 49 49 49 49 49 49 49 49 47
41 42 42 43 43 44 44 44 44 44 44 43 43 44 44 44 45 46 47 47 46 46 46 46 47 47 46 46 47 47 47 46 46 46 46 47 48 49 49 49 49 49 51 51 51 51 51 50 50 50 50 50 50 50 50 50 50 50 50 49 49 49 49 49 49 49 49 49 49
40 41 41 41 42 42 43 44 44 44 43 43 42 43 43 43 44 44 45 45 45 45 45 45 46 47 47 46 47 47 46 46 46 46 46 47 49 50 51 50 50 50 51 51 51 51 51 51 50 50 51 50 50 50 50 50 50 50 50 50 49 50 50 50 50 50 49 49 49
40 40 41 41 41 41 42 42 43 43 43 42 42 42 42 42 42 43 43 43 44 44 44 44 46 47 47 47 48 47 47 46 46 46 47 48 50 51 52 51 51 51 51 51 51 51 51 51 50 50 50 50 50 49 50 50 50 50 50 50 50 50 50 50 50 50 49 49 49
40 40 40 40 40 41 41 41 42 42 42 42 42 42 42 42 42 42 42 43 44 44 44 45 45 47 48 48 49 49 49 47 48 47 47 48 49 51 52 51 51 52 52 51 51 51 51 50 50 50 49 49 49 49 49 49 49 49 49 50 50 50 50 50 49 49 49 49 49
40 40 40 40 40 40 40 41 41 41 41 41 41 41 41 41 41 41 42 44 44 44 44 45 45 47 49 50 51 51 51 50 50 49 48 47 48 49 50 51 51 52 51 51 51 50 50 49 49 50 49 49 49 49 49 49 49 48 48 48 49 49 49 49 49 49 49 49 49
40 40 40 40 40 40 40 40 40 41 41 41 41 41 41 41 41 41 42 43 44 44 44 44 44 46 48 51 52 52 52 52 52 50 49 48 49 49 49 50 51 51 51 50 51 50 49 49 49 50 50 49 49 49 49 49 49 48 48 47 48 49 49 49 49 49 50 50 49
40 40 40 40 40 40 40 40 40 40 40 40 41 41 41 40 40 41 41 42 42 42 42 42 44 45 47 49 51 52 52 52 51 51 50 50 50 50 50 49 50 50 49 49 49 49 49 49 49 50 50 50 50 49 49 49 49 48 48 47 47 48 49 49 49 49 49 49 49
41 41 40 40 40 40 40 39 39 40 40 40 40 40 40 40 40 40 40 40 41 41 41 41 42 44 46 47 48 50 51 52 51 51 51 51 51 51 49 48 48 47 47 46 49 49 49 48 49 49 50 50 50 49 48 49 48 48 48 48 47 48 48 48 49 49 49 49 49
42 42 41 40 40 39 39 39 39 39 40 40 40 40 40 40 40 40 40 40 40 40 41 41 41 43 44 45 46 48 49 50 51 51 51 51 51 50 49 47 46 45 45 46 49 50 49 49 49 49 49 50 49 48 47 47 48 48 47 48 47 47 48 47 47 48 48 48 49
43 43 43 42 40 39 39 39 39 39 40 40 40 40 40 40 40 39 39 39 40 40 40 40 41 43 44 45 45 46 47 49 50 51 51 51 51 50 49 47 46 45 45 47 49 50 49 49 49 49 49 49 49 48 47 46 47 47 46 47 47 47 47 46 45 45 46 48 48
44 44 44 44 42 40 39 39 39 39 39 39 39 39 39 39 39 39 39 39 39 40 40 40 41 43 44 44 44 44 45 47 49 50 51 51 50 49 48 46 45 45 46 48 49 50 49 49 49 49 49 49 49 49 49 47 47 46 45 45 46 46 45 44 43 42 42 44 46
44 45 45 45 44 42 40 39 39 39 39 38 38 38 38 38 38 38 38 38 39 40 40 41 41 42 43 44 44 44 44 45 47 49 50 51 50 49 47 44 44 45 47 49 49 49 49 49 49 49 49 49 48 48 48 48 48 47 46 45 45 44 43 42 42 42 41 40 42
44 45 46 46 45 44 41 39 39 38 38 38 38 37 37 38 38 38 38 38 38 39 40 41 41 41 42 43 44 44 44 44 45 46 47 48 49 48 46 44 44 45 46 49 49 49 49 49 48 48 48 48 48 48 48 47 47 45 44 44 43 42 41 40 40 40 40 40 40
43 44 45 46 46 45 43 40 39 38 38 38 37 37 37 37 37 38 38 38 39 40 40 41 41 41 41 42 43 43 43 44 44 45 45 46 46 45 44 43 43 44 46 49 49 49 49 48 48 48 47 47 46 46 46 47 46 44 42 41 41 40 40 40 40 40 40 40 40
43 44 44 46 46 46 44 42 40 39 38 37 37 37 37 37 38 38 39 39 40 40 40 40 40 40 41 41 42 42 42 43 44 44 45 45 45 44 43 42 42 44 46 48 49 49 49 48 48 47 47 47 45 44 45 45 44 43 41 40 41 41 41 44 43 41 40 40 40
42 43 44 44 45 46 45 43 41 40 39 38 37 37 37 37 38 39 39 40 40 40 40 40 40 40 40 40 41 41 41 42 44 44 45 45 44 43 42 41 41 43 46 48 49 49 48 48 47 47 46 46 44 43 43 44 44 42 40 40 41 42 42 42 42 41 41 41 41
42 42 42 43 44 45 45 44 42 41 40 39 38 37 37 38 38 38 38 40 40 40 40 40 40 40 40 40 40 40 40 41 43 44 44 44 44 43 42 41 42 44 46 48 49 49 48 48 47 46 45 45 43 41 40 40 42 41 40 41 41 42 43 44 44 44 44 44 43
41 41 41 42 43 44 44 44 43 42 42 41 39 38 38 39 39 39 39 40 40 39 39 40 40 40 40 40 40 40 40 40 41 42 43 43 43 42 41 41 43 45 47 49 48 48 48 47 47 46 45 44 42 40 39 38 40 40 40 41 42 44 45 46 46 46 46 45 44
41 41 41 41 42 43 43 44 43 43 42 42 41 40 40 39 39 39 40 40 40 39 39 39 39 39 40 40 40 40 39 39 40 40 41 41 41 41 40 41 43 45 47 48 48 48 48 47 46 46 45 44 42 40 40 40 40 40 41 41 41 42 44 47 48 47 46 46 45
41 40 40 40 40 41 42 42 42 42 43 43 42 41 40 39 39 40 40 40 39 39 39 39 39 39 39 39 39 39 39 39 39 39 40 40 40 40 40 40 42 44 46 48 48 48 47 47 46 45 44 42 41 40 40 41 41 41 40 40 40 41 43 46 46 46 47 47 47
40 40 40 40 40 40 40 41 41 42 43 44 44 43 41 40 40 40 40 40 39 39 38 38 38 39 39 39 39 39 39 39 39 39 38 39 39 39 39 39 41 44 46 48 47 47 47 47 46 46 44 42 41 41 41 41 41 41 40 40 40 40 42 44 44 44 45 46 45
40 40 40 39 39 39 40 40 40 41 43 45 45 44 42 40 40 40 40 40 39 39 38 38 38 39 40 40 39 38 38 38 39 39 38 37 38 39 39 39 41 43 45 47 47 47 47 47 46 46 44 42 41 41 41 41 41 40 40 40 40 40 40 41 42 42 43 44 43
40 40 39 39 39 39 39 39 40 41 43 45 46 46 44 42 40 40 40 40 39 39 38 38 38 39 39 40 39 38 38 38 39 38 37 37 38 40 40 40 41 43 45 47 47 47 46 46 46 46 44 41 41 41 40 40 40 40 40 40 40 39 39 40 40 40 41 42 42
40 39 39 39 39 39 39 39 39 41 44 46 46 47 47 44 42 40 39 39 39 38 38 37 37 38 39 40 39 38 38 38 39 38 38 38 39 40 41 40 41 42 44 46 47 47 46 46 45 45 44 41 41 41 40 39 39 39 40 40 39 39 38 38 38 39 40 40 41